Location: Krakow
(50.0830°N, 19.9170°E)
Time: 20:46:10
(UTC+01:00)

Altair - Pass Details

Date: 06 December 2023
Orbit: 1501 x 1682 km, 47.2° (Epoch: 03 March)

Event Time Altitude Azimuth Distance (km) Brightness Sun altitude
Rises 05:40:52 0° 185° (S) 4,854 10.3 -15.5°
Reaches altitude 10° 05:45:16 10° 169° (SSE) 3,840 10.0 -14.9°
Maximum altitude 05:51:21 19° 129° (SE) 3,161 10.1 -13.9°
Drops below altitude 10° 05:57:18 10° 90° (E) 3,759 10.8 -13.0°
Sets 06:01:30 0° 73° (ENE) 4,715 11.0 -12.4°
